FECHA, PRODUCCION
2011-01-01, 50.01
2011-01-02, 133.04
2011-01-03, 124.69
2011-01-04, 141.55
2011-01-05, 95.58
2011-01-06, 112.78
2011-01-07, 14.03
2011-01-08, 146.28
2011-01-09, 85.01
2011-01-10, 160.58
2011-01-11, 129.58
2011-01-12, 157.32
2011-01-13, 157.63
2011-01-14, 156.24
2011-01-15, 157.35
2011-01-16, 134.36
2011-01-17, 133.67
2011-01-18, 49.2
2011-01-19, 44.93
2011-01-20, 147.14
2011-01-21, 119.58
2011-01-22, 18.03
2011-01-23, 7.77
2011-01-24, 23.4
2011-01-25, 19.39
2011-01-26, 15.31
2011-01-27, 132.46
2011-01-28, 88.67
2011-01-29, 128.79
2011-01-30, 132
2011-01-31, 184.81
2011-02-01, 172.84
2011-02-02, 181.34
2011-02-03, 182.9
2011-02-04, 186.06
2011-02-05, 188.13
2011-02-06, 182.74
2011-02-07, 183.7
2011-02-08, 177.72
2011-02-09, 183.18
2011-02-10, 159.05
2011-02-11, 182.33
2011-02-12, 187.17
2011-02-13, 108.62
2011-02-14, 146.45
2011-02-15, 28.55
2011-02-16, 60.92
2011-02-17, 196.72
2011-02-18, 209.23
2011-02-19, 144.46
2011-02-20, 210.15
2011-02-21, 172.66
2011-02-22, 191.42
2011-02-23, 210.34
2011-02-24, 208.61
2011-02-25, 208.74
2011-02-26, 206.03
2011-02-27, 193.5
2011-02-28, 228.22
2011-03-01, 228.93
2011-03-02, 207.99
2011-03-03, 222.08
2011-03-04, 127.39
2011-03-05, 134.28
2011-03-06, 98.12
2011-03-07, 195.22
2011-03-08, 99.05
2011-03-09, 5.35
2011-03-10, 16.64
2011-03-11, 23.06
2011-03-12, 155.58
2011-03-13, 82.86
2011-03-14, 75.12
2011-03-15, 164.7
2011-03-16, 238.68
2011-03-17, 241.78
2011-03-18, 237.37
2011-03-19, 243.09
2011-03-20, 222.95
2011-03-21, 147.67
2011-03-22, 120.71
2011-03-23, 98.06
2011-03-24, 226.15
2011-03-25, 196.91
2011-03-26, 212.5
2011-03-27, 246.36
2011-03-28, 236.24
2011-03-29, 198.06
2011-03-30, 245
2011-03-31, 243.3
2011-04-01, 246.98
2011-04-02, 154.21
2011-04-03, 52
2011-04-04, 191.97
2011-04-05, 65.87
2011-04-06, 154.5
2011-04-07, 240.9
2011-04-08, 249.16
2011-04-09, 245.47
2011-04-10, 252.88
2011-04-11, 228.19
2011-04-12, 252.74
2011-04-13, 255.09
2011-04-14, 246.6
2011-04-15, 213.63
2011-04-16, 255.64
2011-04-17, 229.91
2011-04-18, 109.93
2011-04-19, 106.42
2011-04-20, 68.1
2011-04-21, 77.18
2011-04-22, 90.9
2011-04-23, 127.69
2011-04-24, 190.46
2011-04-25, 138.98
2011-04-26, 267.1
2011-04-27, 265.69
2011-04-28, 256.72
2011-04-29, 49.15
2011-04-30, 128.82
2011-05-01, 158.81
2011-05-02, 105.03
2011-05-03, 260.42
2011-05-04, 246.05
2011-05-05, 268.31
2011-05-06, 174.37
2011-05-07, 198.83
2011-05-08, 274.13
2011-05-09, 267.7
2011-05-10, 171.88
2011-05-11, 155.13
2011-05-12, 218.58
2011-05-13, 208.23
2011-05-14, 268.15
2011-05-15, 212.65
2011-05-16, 153.18
2011-05-17, 196.56
2011-05-18, 81.52
2011-05-19, 114.84
2011-05-20, 164.62
2011-05-21, 271.52
2011-05-22, 264.08
2011-05-23, 257
2011-05-24, 266.45
2011-05-25, 256.31
2011-05-26, 82.3
2011-05-27, 224.44
2011-05-28, 261.21
2011-05-29, 253.37
2011-05-30, 237.4
2011-05-31, 190.1
2011-06-01, 259.44
2011-06-02, 184.74
2011-06-03, 247.13
2011-06-04, 260.46
2011-06-05, 269.38
2011-06-06, 208.06
2011-06-07, 197.66
2011-06-08, 250.85
2011-06-09, 208.78
2011-06-10, 261.01
2011-06-11, 260.34
2011-06-12, 269.07
2011-06-13, 255.37
2011-06-14, 266.06
2011-06-15, 265.11
2011-06-16, 261
2011-06-17, 265.94
2011-06-18, 257.32
2011-06-19, 245.59
2011-06-20, 257.81
2011-06-21, 255.56
2011-06-22, 252.82
2011-06-23, 256.4
2011-06-24, 150.67
2011-06-25, 143.48
2011-06-26, 244.18
2011-06-27, 248.67
2011-06-28, 239.61
2011-06-29, 219.65
2011-06-30, 204.9
2011-07-01, 91.09
2011-07-02, 0
2011-07-03, 0
2011-07-04, 0
2011-07-05, 0
2011-07-06, 0
2011-07-07, 0
2011-07-08, 0
2011-07-09, 0
2011-07-10, 0
2011-07-11, 0
2011-07-12, 0
2011-07-13, 0
2011-07-14, 0
2011-07-15, 0
2011-07-16, 0
2011-07-17, 0
2011-07-18, 0
2011-07-19, 0
2011-07-20, 0
2011-07-21, 0
2011-07-22, 0
2011-07-23, 0
2011-07-24, 0
2011-07-25, 0
2011-07-26, 0
2011-07-27, 0
2011-07-28, 0
2011-07-29, 0
2011-07-30, 0
2011-07-31, 0
2011-08-01, 0
2011-08-02, 0
2011-08-03, 0
2011-08-04, 0
2011-08-05, 0
2011-08-06, 0
2011-08-07, 0
2011-08-08, 0
2011-08-09, 0
2011-08-10, 0
2011-08-11, 0
2011-08-12, 0
2011-08-13, 0
2011-08-14, 0
2011-08-15, 0
2011-08-16, 0
2011-08-17, 0
2011-08-18, 0
2011-08-19, 0
2011-08-20, 0
2011-08-21, 0
2011-08-22, 0
2011-08-23, 0
2011-08-24, 0
2011-08-25, 0
2011-08-26, 0
2011-08-27, 0
2011-08-28, 0
2011-08-29, 0
2011-08-30, 0
2011-08-31, 0
2011-09-01, 0
2011-09-02, 0
2011-09-03, 0
2011-09-04, 0
2011-09-05, 0
2011-09-06, 0
2011-09-07, 0
2011-09-08, 0
2011-09-09, 0
2011-09-10, 0
2011-09-11, 0
2011-09-12, 0
2011-09-13, 0
2011-09-14, 0
2011-09-15, 0
2011-09-16, 0
2011-09-17, 0
2011-09-18, 0
2011-09-19, 0
2011-09-20, 0
2011-09-21, 0
2011-09-22, 0
2011-09-23, 0
2011-09-24, 0
2011-09-25, 0
2011-09-26, 0
2011-09-27, 0
2011-09-28, 0
2011-09-29, 0
2011-09-30, 0
2011-10-01, 0
2011-10-02, 0
2011-10-03, 0
2011-10-04, 0
2011-10-05, 0
2011-10-06, 0
2011-10-07, 0
2011-10-08, 0
2011-10-09, 0
2011-10-10, 0
2011-10-11, 0
2011-10-12, 0
2011-10-13, 0
2011-10-14, 0
2011-10-15, 0
2011-10-16, 0
2011-10-17, 0
2011-10-18, 0
2011-10-19, 0
2011-10-20, 0
2011-10-21, 0
2011-10-22, 0
2011-10-23, 0
2011-10-24, 0
2011-10-25, 0
2011-10-26, 0
2011-10-27, 0
2011-10-28, 0
2011-10-29, 0
2011-10-30, 0
2011-10-31, 0
2011-11-01, 0
2011-11-02, 0
2011-11-03, 0
2011-11-04, 0
2011-11-05, 0
2011-11-06, 0
2011-11-07, 0
2011-11-08, 0
2011-11-09, 0
2011-11-10, 0
2011-11-11, 0
2011-11-12, 0
2011-11-13, 0
2011-11-14, 0
2011-11-15, 0
2011-11-16, 0
2011-11-17, 0
2011-11-18, 0
2011-11-19, 0
2011-11-20, 0
2011-11-21, 0
2011-11-22, 0
2011-11-23, 0
2011-11-24, 0
2011-11-25, 0
2011-11-26, 0
2011-11-27, 0
2011-11-28, 151.66
2011-11-29, 146.43
2011-11-30, 147.9
2011-12-01, 125.89
2011-12-02, 27.94
2011-12-03, 64.86
2011-12-04, 69.09
2011-12-05, 0
2011-12-06, 0
2011-12-07, 0
2011-12-08, 0
2011-12-09, 0
2011-12-10, 0
2011-12-11, 0
2011-12-12, 0
2011-12-13, 0
2011-12-14, 0
2011-12-15, 0
2011-12-16, 0
2011-12-17, 0
2011-12-18, 0
2011-12-19, 0
2011-12-20, 0
2011-12-21, 0
2011-12-22, 0
2011-12-23, 0
2011-12-24, 0
2011-12-25, 0
2011-12-26, 0
2011-12-27, 0
2011-12-28, 0
2011-12-29, 0
2011-12-30, 0
2011-12-31, 0
